sat.trackr.live / text

‹ back to catalog

BEIDOU-2 M3 (C11)

NORAD 38250 · 2012-018A

PAYLOAD ACTIVE UNKNOWN

§ Identity

Operator
Country
PRC
Launch date
2012-04-29
Launch site
XICLF
Launch vehicle
Mass (kg)
RCS (m²)
7.14

Purposes: nav

External: N2YO · Heavens-Above · Gunter

§ Orbital elements

Epoch: 2026-09-18T01:58:39.513792Z

Period
773.24 min
Inclination
55.6740°
Eccentricity
0.0023252
Mean motion
1.86230014 rev/d
Perigee alt
21,463.3 km
Apogee alt
21,593.0 km
Semi-major
27,906.3 km
B*
0.0000e+0
RAAN
301.7369°
Arg perigee
273.0823°
Mean anomaly
86.7126°
Rev number
9,767

§ Raw data

BEIDOU-2 M3 (C11)1 38250U 12018A   26261.08240178 -.00000043  00000+0  00000+0 0  99932 38250  55.6740 301.7369 0023252 273.0823  86.7126  1.86230014 97679

JSON: /api/v1/satellites/38250 · /tle

For live sub-satellite position, see the globe view (requires WebGL).

§ Visibility from observer

Set your observer location to see the next 7 days of passes ≥ 10°. The values pass through the URL so the page stays shareable.

No JS? Fill the form by hand. The geolocation button needs JavaScript.